Location: Birdton
(46.1166°N, 66.8166°W)
Time: 19:16:16
(UTC-03:00)

Daily predictions for brighter satellites

Satellite Brightness Start Highest point End
(mag) Time Altitude Azimuth Time Altitude Azimuth Time Altitude Azimuth
NOSS 3-4 (A) 4.5 18:56:14 10° NW 19:03:09 64° WSW 19:10:34 10° SSE
NOSS 3-4 (C) 4.4 18:56:20 10° NW 19:03:16 64° WSW 19:10:41 10° SSE
Cosmos 2218 Rocket 4.2 18:59:12 10° SSE 19:05:02 47° E 19:10:52 10° NNE
COSMO-SKYMED 1 3.2 19:01:09 10° NNE 19:05:09 34° E 19:09:07 10° SSE
RESURS DK-1 3.6 19:02:41 10° N 19:06:06 24° NE 19:09:30 10° ESE
Meteor 1-11 4.4 19:01:31 10° N 19:07:13 54° ENE 19:12:49 10° SSE
Meteor 2-15 Rocket 4.4 19:01:40 10° N 19:07:45 66° ENE 19:13:49 10° SSE
Aureole 1 Rocket 4.0 19:02:19 10° S 19:08:44 49° ESE 19:13:40 10° NNE
Cosmos 1626 2.8 19:06:44 10° N 19:10:11 34° ENE 19:13:37 10° SE
Cosmos 1452 Rocket 4.3 19:06:39 10° N 19:11:19 31° ENE 19:15:58 10° ESE
Meteor 2-21 4.4 19:06:24 10° S 19:12:27 75° E 19:18:31 10° NNE
Lacrosse 4 Rocket 4.2 19:10:41 10° WNW 19:12:29 12° NW 19:14:16 10° NNW
Cosmos 2341 Rocket 4.2 19:07:15 10° S 19:13:31 83° W 19:19:53 10° N
Cosmos 1727 Rocket 4.3 19:07:46 10° N 19:13:54 48° ENE 19:20:00 10° SSE
Cosmos 1408 Rocket 3.6 19:09:30 10° N 19:13:58 85° E 19:18:25 10° S
deb Kosmos-1763 4.3 19:10:45 10° S 19:14:26 51° ESE 19:18:11 10° NNE
Cosmos 1470 3.8 19:10:44 10° SSW 19:14:37 52° WNW 19:18:32 10° N
ATLAS 5 CENTAUR R/B 4.1 19:11:18 10° WNW 19:14:42 18° NNW 19:18:20 10° NNE
Atlas Centaur 2 4.1 19:14:00 10° SSW 19:16:24 13° SSE 19:19:04 10° SE
Lacrosse 5 rocket 2.2 19:12:19 10° WSW 19:16:44 52° NNW 19:20:57 10° NE
EO 1 Del DPAF 3.3 19:13:51 10° NNE 19:17:39 57° E 19:21:26 10° S
CZ-4 R/B 4.4 19:13:59 10° SSE 19:18:07 84° ENE 19:22:17 10° NNW
DELTA 2 R/B (1) 4.4 19:14:27 10° WSW 19:19:41 43° S 19:24:57 10° ESE
Cosmos 2322 4.3 19:14:24 10° NNW 19:19:44 38° NE 19:25:01 10° ESE
Cosmos 1328 3.8 19:16:50 10° N 19:20:51 87° E 19:24:48 10° S
SJ-6B 4.3 19:20:02 10° ESE 19:22:20 16° ENE 19:24:38 10° NNE
Gbstr 26 Del rocket 4.0 19:18:03 10° WNW 19:22:37 47° N 19:27:57 11° E
Meteor 1-16 Rocket 4.0 19:19:49 10° S 19:25:05 75° E 19:30:27 10° NNE
YAOGAN 1 3.2 19:28:39 10° S 19:32:56 62° WSW 19:37:15 10° NNW
ALOS 2.4 19:28:30 10° SSE 19:33:02 54° ENE 19:37:36 10° N
MONITOR-E 4.1 19:30:07 10° SSE 19:33:12 89° W 19:36:18 10° NNW
SL-08 R/B 4.4 19:28:19 10° S 19:34:26 67° E 19:40:30 10° NNE
FENGYUN 3A 3.7 19:29:34 10° SSE 19:34:50 57° ENE 19:40:09 10° N
GP-B 3.0 19:30:52 10° N 19:35:20 76° E 19:39:47 10° S
MOS 1 4.4 19:31:33 10° SSE 19:37:13 81° WSW 19:42:57 10° NNW
Meteor 2-14 Rocket 4.5 19:32:19 10° S 19:38:25 89° W 19:44:32 10° N
Cosmos 1703 3.3 19:35:21 10° N 19:39:16 59° E 19:43:08 10° SSE
Meteor 2-16 Rocket 4.4 19:34:45 10° S 19:40:50 83° E 19:47:00 10° N
CZ-4 R/B 3.4 19:37:40 10° SSW 19:41:32 34° W 19:45:23 10° NNW
Abrixas rocket 2.1 19:40:52 10° WSW 19:44:10 75° SSE 19:46:10 22° ENE
Cosmos 2219 Rocket 3.4 19:40:28 10° N 19:44:56 24° NE 19:47:32 17° E
USA 234 4.0 19:40:40 14° ENE 19:45:52 39° NNE 19:51:50 10° NW
Cosmos 1400 Rocket 2.8 19:44:11 10° NNW 19:48:17 88° WSW 19:52:17 10° S
Cosmos-2242 4.1 19:46:14 10° SSW 19:50:22 47° WNW 19:54:30 10° N
Thor Agena Rocket 3.9 19:45:35 10° NNE 19:50:26 41° E 19:55:12 10° S
SKYMED 2 3.8 19:48:57 10° N 19:53:18 75° WNW 19:57:38 10° SSW
SL-16 R/B 3.4 19:48:48 10° NW 19:54:12 46° WSW 19:59:35 10° S
BREEZE-M DEB (TANK) 3.6 19:42:27 10° WSW 19:55:23 85° S 19:58:14 23° E
Cosmos 2237 4.3 19:49:49 10° NNW 19:55:29 56° ENE 20:00:53 11° SE
Cosmos 1420 Rocket 4.1 19:53:44 10° NNW 19:58:59 55° ENE 20:04:06 10° SE
Cosmos 1743 Rocket 4.0 19:56:06 10° NNW 20:00:26 63° W 20:04:47 10° S
Iridium 4 Rocket 3.8 19:57:08 10° SSE 20:02:24 51° E 20:08:01 10° NNE
Cosmos 2151 3.2 19:59:43 10° NNW 20:04:02 74° W 20:08:16 10° S
Cosmos 1908 3.3 20:00:44 10° S 20:04:33 52° E 20:08:22 10° NNE
GRACE-2 3.8 20:03:33 10° S 20:06:06 72° W 20:08:41 10° N
Envisat 3.9 20:06:03 25° E 20:06:59 27° ENE 20:11:11 10° N
GRACE-1 4.1 20:05:21 10° S 20:07:55 64° W 20:10:30 10° N
Cosmos 1842 Rocket 3.8 20:05:44 10° SSW 20:10:12 72° W 20:14:41 10° N
H-2A R/B 2.7 20:08:17 10° SSE 20:12:07 68° ENE 20:16:01 10° N
Resurs 01 Rocket 2.5 20:12:24 29° ENE 20:12:26 29° ENE 20:16:13 10° N
Cosmos 2237 Rocket 3.4 20:08:28 10° N 20:12:55 23° NE 20:13:50 22° ENE
SL-16 R/B 4.1 20:17:37 10° N 20:20:27 14° NE 20:20:51 14° NE
Cosmos 2221 2.4 20:17:42 10° S 20:21:59 70° E 20:26:19 10° NNE
FREGAT/IRIS 2.9 20:23:45 23° S 20:25:25 64° W 20:28:25 10° NNW
CZ-2D R/B 3.6 20:26:21 44° NE 20:26:21 44° NE 20:29:41 10° N
Cosmos 1315 Rocket 3.4 20:25:07 10° NNW 20:29:07 60° W 20:33:08 10° S
Cosmos 158 Rocket 3.9 20:25:00 10° S 20:29:54 57° ESE 20:34:59 10° NNE
Resurs 1-3 4.2 20:31:04 38° NE 20:31:04 38° NE 20:34:39 10° N
Cosmos 921 Rocket 3.4 20:26:19 10° NNW 20:30:47 66° WSW 20:34:56 11° S
COSMOS 2428 2.6 20:25:51 10° NNW 20:31:33 71° ENE 20:34:16 32° SE
CSL-04 DEB 4.3 20:31:51 26° SSE 20:34:07 89° ENE 20:38:12 10° NNW
Cosmos 2333 Rocket 2.6 20:29:39 10° NNW 20:35:07 43° NE 20:36:01 40° E
Cosmos 1269 Rocket 4.2 20:30:48 10° S 20:35:50 47° ESE 20:36:21 46° E
Cosmos 1980 4.5 20:30:54 10° NNW 20:35:58 32° NE 20:36:08 32° NE
HJ-1C 3.4 20:36:21 69° SSW 20:36:41 79° WSW 20:40:07 10° NNW
MOS 1-B Rocket 3.8 20:35:00 29° SE 20:37:54 64° ENE 20:43:51 10° N
Cosmos 2360 Rocket 3.1 20:33:10 10° NW 20:38:36 49° WSW 20:44:01 10° S
Cosmos 1833 4.5 20:35:01 10° SW 20:40:41 69° WNW 20:46:20 10° NNE
Cosmos 2098 Rocket 3.1 20:37:47 10° S 20:41:59 81° E 20:47:26 10° N
RESURS DK-1 3.7 20:40:25 10° NW 20:44:16 38° WSW 20:47:05 16° S
Cosmos 2219 3.3 20:40:10 10° S 20:45:36 50° ESE 20:45:36 50° ESE
Cosmos 468 4.4 20:42:07 10° SSW 20:47:20 88° WNW 20:52:37 10° NNE
NOSS 0 Rocket 4.1 20:41:41 10° NNW 20:47:42 51° NE 20:48:32 48° E
USA 267 3.2 20:49:38 40° ENE 20:52:01 64° SE 20:58:29 10° SW
Cosmos 1821 Rocket 3.9 20:46:46 10° S 20:52:54 87° W 20:59:12 10° N
BREEZE-M DEB (TANK) 4.4 20:52:23 10° WSW 20:52:35 12° WSW 20:52:35 12° WSW
BREEZE M DEB (TANK) 4.1 20:38:02 10° WNW 20:56:03 85° NNE 20:57:34 54° E
SJ-6B 3.8 20:55:11 28° SSW 20:56:41 43° W 21:00:17 10° NNW
Lacrosse 5 rocket 3.3 20:53:23 10° WNW 20:56:44 21° NNW 20:57:43 19° N
SL-8 R/B 3.7 20:51:57 10° WSW 20:56:27 66° S 20:56:27 66° S
Sich 1 3.2 20:54:20 10° N 20:58:07 67° N 20:58:07 67° N
Cosmos 1805 Rocket 4.1 20:56:40 10° NNW 21:00:57 57° W 21:02:32 35° SSW
ATLAS 5 CENTAUR R/B 4.4 20:59:13 10° NNW 21:01:39 13° N 21:03:31 11° NNE
Cosmos 1934 Rocket 3.9 20:55:59 10° S 21:02:20 85° E 21:08:45 10° N
Atlas Centaur 2 4.2 21:00:59 10° SW 21:04:24 16° S 21:04:35 16° S
DELTA 2 R/B (1) 4.4 21:00:29 10° WSW 21:05:34 36° SSW 21:05:56 36° S
Cosmos 1666 Rocket 4.0 21:05:02 10° NNW 21:08:35 56° NW 21:08:35 56° NW
Gbstr 26 Del rocket 3.6 21:04:48 10° WNW 21:10:05 89° NNE 21:10:30 79° ESE
Spot 2 Rocket 3.4 21:11:22 81° NNW 21:11:22 81° NNW 21:16:12 10° NNW
BREEZE M DEB (TANK) 4.1 21:08:42 10° WNW 21:10:26 24° WNW 21:10:26 24° WNW
CZ-4C R/B 3.3 21:09:49 10° SSW 21:12:17 29° SSW 21:12:17 29° SSW
Cosmos 1110 Rocket 4.2 21:11:22 10° NNW 21:15:50 61° N 21:15:50 61° N
Cosmos 2123 Rocket 4.1 21:11:56 10° NNW 21:18:10 75° W 21:20:47 37° S
Cosmos 1633 Rocket 4.1 21:15:12 10° NNW 21:18:09 41° NNW 21:18:09 41° NNW
Cosmos 1605 Rocket 3.9 21:27:39 72° N 21:27:39 72° N 21:33:04 10° N
USA 234 3.1 21:28:02 74° ENE 21:28:21 76° NNE 21:34:55 10° NW
Cosmos 2219 Rocket 2.3 21:23:50 10° NNW 21:29:17 68° WSW 21:29:17 68° WSW
Envisat 4.0 21:46:16 43° W 21:46:16 43° W 21:50:39 10° NNW
Resurs 01 Rocket 3.6 21:50:00 27° WNW 21:50:00 27° WNW 21:52:48 10° NNW
Cosmos 2237 Rocket 3.2 21:51:53 10° NNW 21:55:40 43° NW 21:55:40 43° NW
SL-16 R/B 3.9 22:00:13 10° NNW 22:02:44 26° N 22:02:44 26° N
Cosmos 2333 Rocket 3.8 22:14:10 10° NW 22:18:02 30° W 22:18:02 30° W
USA 267 4.3 22:37:01 39° WNW 22:37:01 39° WNW 22:41:14 10° W
